This demonstration page uses our WeatherBlox Daily Observations layout. Learn more.

38.88101, -77.10428

Hourly Observations for October 31, 2016

Temp ( °F °C ) Dew Point ( °F °C ) Humidity (%) Winds ( mph kmh ) Pressure ( in mb ) Visibility ( mi km ) Precip ( " mm )
12:52 am 00:52 Mostly Clear 63 17.2 52 11.1 68 68 NNW 15 24 30.03 1017 10 16.09344 0 0
1:52 am 01:52 Mostly Clear 61 16.1 50 10 67 67 NNW 13 20 30.06 1018 10 16.09344 0 0
2:52 am 02:52 Mostly Clear 59 15 48 8.9 67 67 NW 12 19 30.06 1018 10 16.09344 0 0
3:52 am 03:52 Mostly Clear 57 13.9 46 7.8 67 67 NNW 12 19 30.09 1019 10 16.09344 0 0
4:52 am 04:52 Mostly Clear 55 12.8 43 6.1 64 64 NW 15 24 30.12 1020 10 16.09344 0 0
5:52 am 05:52 Clear 54 12.2 44 6.7 69 69 NNW 13 20 30.15 1021 10 16.09344 0 0
6:52 am 06:52 Mostly Clear 52 11.1 43 6.1 72 72 N 14 22 30.15 1021 10 16.09344 0 0
7:52 am 07:52 Mostly Sunny 52 11.1 43 6.1 72 72 N 12 19 30.18 1022 10 16.09344 0 0
8:52 am 08:52 Partly Cloudy 53 11.7 42 5.6 66 66 N 15 24 30.21 1023 10 16.09344 0 0
9:52 am 09:52 Partly Cloudy 55 12.8 40 4.4 57 57 N 17 28 30.24 1024 10 16.09344 0 0
10:52 am 10:52 Partly Cloudy 56 13.3 39 3.9 53 53 NNW 13 20 30.24 1024 10 16.09344 0 0
11:52 am 11:52 Mostly Cloudy 58 14.4 39 3.9 50 50 NW 9 15 30.24 1024 10 16.09344 0 0
12:52 pm 12:52 Cloudy 59 15 37 2.8 44 44 N 8 13 30.21 1023 10 16.09344 0 0
1:52 pm 13:52 Cloudy 60 15.6 37 2.8 42 42 NW 9 15 30.21 1023 10 16.09344 0 0
2:52 pm 14:52 Cloudy 60 15.6 36 2.2 41 41 NNW 6 9 30.21 1023 10 16.09344 0 0
3:52 pm 15:52 Mostly Cloudy 60 15.6 36 2.2 41 41 NNW 5 7 30.21 1023 10 16.09344 0 0
4:52 pm 16:52 Mostly Cloudy 58 14.4 35 1.7 42 42 N 7 11 30.21 1023 10 16.09344 0 0
5:52 pm 17:52 Mostly Cloudy 57 13.9 35 1.7 44 44 N 6 9 30.21 1023 10 16.09344 0 0
6:52 pm 18:52 Mostly Cloudy 55 12.8 35 1.7 47 47 NNW 6 9 30.24 1024 10 16.09344 0 0
7:52 pm 19:52 Mostly Cloudy 53 11.7 40 4.4 61 61 E 5 7 30.27 1025 10 16.09344 0 0
8:52 pm 20:52 Mostly Cloudy 52 11.1 39 3.9 61 61 E 3 6 30.27 1025 10 16.09344 0 0
9:52 pm 21:52 Mostly Cloudy 51 10.6 40 4.4 66 66 E 3 6 30.27 1025 10 16.09344 0 0
10:52 pm 22:52 Cloudy 51 10.6 39 3.9 64 64 Calm 30.27 1025 10 16.09344 0 0
11:52 pm 23:52 Cloudy 50 10 39 3.9 66 66 SE 3 6 30.27 1025 10 16.09344 0 0

Powered by AerisWeather